Location: Kawakawa
(35.3830°S, 174.0670°E)
Time: 02:09:51
(UTC+13:00)

A-11 Canister half - Visible Passes

Search period start: 14 December 2019 00:00
Search period end: 24 December 2019 00:00
Orbit: 1515 x 1685 km, 47.2° (Epoch: 12 December)

Date Brightness Start Highest point End Pass type
(mag) Time Alt. Az. Time Alt. Az. Time Alt. Az.
14 Dec 9.2 00:57:03 10° WNW 01:06:57 68° SSW 01:16:31 10° SE visible
14 Dec 10.1 03:04:16 10° WSW 03:13:19 41° S 03:22:07 10° ESE visible
14 Dec 9.9 05:10:48 10° SW 05:20:03 51° SSE 05:29:04 10° E visible
14 Dec 9.3 22:30:06 10° NNW 22:39:18 43° NE 22:48:15 10° ESE visible
15 Dec 9.2 00:34:02 10° WNW 00:43:59 71° SSW 00:53:37 10° SE visible
15 Dec 10.1 02:41:11 10° WSW 02:50:17 42° S 02:59:07 10° ESE visible
15 Dec 9.9 04:47:50 10° SW 04:57:04 50° SSE 05:06:03 10° E visible
15 Dec 9.4 22:07:22 10° NNW 22:16:25 40° NE 22:25:15 10° ESE visible
16 Dec 9.2 00:11:02 10° WNW 00:21:01 74° SSW 00:30:42 10° SE visible
16 Dec 10.0 02:18:05 10° WSW 02:27:15 42° S 02:36:09 10° ESE visible
16 Dec 9.9 04:24:51 10° SW 04:34:05 49° SSE 04:43:02 10° E visible
16 Dec 9.5 21:44:38 10° NNW 21:53:32 37° NE 22:02:15 10° ESE visible
16 Dec 9.1 23:48:01 10° WNW 23:58:04 78° SSW 00:07:47 10° SE visible
17 Dec 10.0 01:55:01 10° W 02:04:13 43° S 02:13:10 10° ESE visible
17 Dec 9.9 04:01:51 10° WSW 04:11:05 47° SSE 04:20:01 10° E visible
17 Dec 9.6 21:21:56 10° N 21:30:40 35° NE 21:39:12 10° ESE visible
17 Dec 9.1 23:25:02 10° WNW 23:35:06 81° SSW 23:44:52 10° SE visible
18 Dec 10.0 01:31:55 10° W 01:41:12 44° S 01:50:12 10° ESE visible
18 Dec 10.0 03:38:51 10° WSW 03:48:04 46° SSE 03:57:00 10° E visible
18 Dec 9.7 20:59:16 10° N 21:07:47 32° NE 21:16:08 10° ESE visible
18 Dec 9.1 23:02:02 10° NW 23:12:09 85° SW 23:21:57 10° SE visible
19 Dec 10.0 01:08:48 10° W 01:18:11 45° SSW 01:27:15 10° ESE visible
19 Dec 10.0 03:15:51 10° WSW 03:25:04 45° SSE 03:33:58 10° E visible
19 Dec 9.1 05:21:17 10° SW 05:30:52 90° S 05:40:11 10° NE visible
19 Dec 9.1 22:39:04 10° NW 22:49:12 88° SW 22:59:02 10° SE visible
20 Dec 10.0 00:45:43 10° W 00:55:09 46° SSW 01:04:17 10° ESE visible
20 Dec 10.0 02:52:50 10° WSW 03:02:03 44° SSE 03:10:57 10° E visible
20 Dec 9.1 04:58:21 10° SW 05:07:58 86° SE 05:17:17 10° NE visible
20 Dec 9.1 22:16:07 10° NW 22:26:15 88° NE 22:36:07 10° SE visible
21 Dec 9.9 00:22:37 10° W 00:32:07 47° SSW 00:41:20 10° ESE visible
21 Dec 10.0 02:29:49 10° WSW 02:39:02 44° S 02:47:56 10° E visible
21 Dec 9.1 04:35:24 10° SW 04:45:03 82° SSE 04:54:22 10° ENE visible
21 Dec 9.1 21:53:10 10° NW 22:03:18 84° NE 22:13:12 10° ESE visible
21 Dec 9.9 23:59:31 10° W 00:09:05 48° SSW 00:18:22 10° ESE visible
22 Dec 10.1 02:06:47 10° WSW 02:16:00 43° S 02:24:54 10° E visible
22 Dec 9.1 04:12:27 10° SW 04:22:07 78° SSE 04:31:27 10° ENE visible
22 Dec 9.1 21:30:14 10° NW 21:40:22 80° NE 21:50:16 10° ESE visible
22 Dec 9.9 23:36:26 10° W 23:46:04 49° SSW 23:55:26 10° ESE visible
23 Dec 10.1 01:43:44 10° WSW 01:52:58 42° S 02:01:53 10° ESE visible
23 Dec 9.2 03:49:30 10° SW 03:59:11 75° SSE 04:08:31 10° ENE visible
23 Dec 9.1 21:07:19 10° NW 21:17:26 76° NE 21:27:20 10° ESE visible
23 Dec 9.9 23:13:20 10° W 23:23:03 51° SSW 23:32:29 10° SE visible
